Starlink 2314

operational
NORAD ID: 47788 Int'l Des: 2021-018 Owner: SPXS Country: US Constellation: starlink
LEOCIRCULARSTARLINK_TYPE

关于 Starlink 2314

正在加载描述...

实时位置

正在加载3D地球...

即将过境

高度历史

Altitude vs Time

uPlot chart will show altitude changes over time

两行轨道根数

1 47788U 21018B 25303.14160579 -.00000602 00000-0 -21494-4 0 9996
2 47788 53.0503 92.6722 0001377 93.1082 267.0064 15.06399154257283
Epoch: Oct 30, 2025 • Age: 14 hours

当前状态

高度 565.5 km
速度 7.58 km/s
星下点 -50.36°S, 85.21°E
发射日期 Mar 11, 2021
运行时间 4.6 years
类型 internet

技术详情

分类 Payload
质量 260.00 kg
干质量 248.00 kg
总质量 260.00 kg
长度 0.20 m
直径 2.80 m
跨度 9.00 m
形状 Box + pan
制造商 SPXS
平台类型 Starlink
阶段状态 In Orbit
所有者/国家 SPXS/US

大型星座

Loading constellations...